Flag for Denmark Weather past 2 weeks in Aalborg, Denmark

Now
46 °F

Clear.


Feels Like: 41 °F
Forecast: 42 / 64 °F
Wind: 10 mph from West

Location: Aalborg Airport

Current Time: Apr 21, 2015 at 3:50:42 AM

Latest Report: Apr 21, 2015 at 3:20 AM


Visibility: 10 mi

Pressure: 30.27 "Hg

Humidity: 82%

Dew point: 41 °F

Location of AalborgLocation

Historic Weather in Aalborg — Graph

°F

Aalborg temperature yesterday

Maximum temperature yesterday: 68 °F (at 2:20 PM)
Minimum temperature yesterday: 37 °F (at 2:50 AM)
Average temperature yesterday: 53 °F

Past Weeks' High & Low Weather Summary

 TemperatureHumidityPressure
High68 °F (Apr 11, 3:50 PM)100% (Apr 6, 2:50 AM)30.45 "Hg (Apr 6, 2:50 AM)
Low28 °F (Apr 6, 6:20 AM)18% (Apr 20, 5:20 PM)29.62 "Hg (Apr 15, 2:03 PM)
Average47 °F76%30.13 "Hg
* Reported Apr 6 2:20 AM — Apr 21 2:20 AM, Aalborg, Weather by CustomWeather, © 2015

Note: Actual official high and low records may vary slightly from our data, if they occured in-between our weather recording intervals... More about our weather records

Advertising

Aalborg weather history for previous 24 hours

 ConditionsComfort  
Time TempWeatherWind HumidityBarometerVisibility
2:20 AM
Tue, Apr 21
46 °FClear.8 mph82%30.27 "Hg10 mi
1:50 AM48 °FClear.12 mph71%30.27 "Hg10 mi
1:20 AM48 °FClear.12 mph71%30.27 "Hg10 mi
12:50 AM48 °FClear.12 mph71%30.27 "Hg10 mi
12:20 AM48 °FClear.9 mph71%30.27 "Hg10 mi
11:50 PM
Mon, Apr 20
50 °FClear.10 mph67%30.27 "Hg10 mi
11:20 PM50 °FClear.10 mph67%30.30 "Hg10 mi
10:50 PM52 °FClear.7 mph58%30.30 "Hg10 mi
10:20 PM52 °FClear.9 mph58%30.30 "Hg10 mi
9:50 PM54 °FClear.9 mph51%30.30 "Hg10 mi
9:20 PM55 °FSunny.9 mph44%30.30 "Hg10 mi
8:50 PM55 °FSunny.10 mph44%30.30 "Hg10 mi
8:20 PM55 °FSunny.13 mph41%30.30 "Hg10 mi
7:50 PM57 °FSunny.12 mph36%30.33 "Hg10 mi
7:20 PM59 °FSunny.13 mph31%30.33 "Hg10 mi
6:50 PM61 °FSunny.13 mph25%30.33 "Hg10 mi
6:20 PM63 °FSunny.13 mph24%30.33 "Hg10 mi
5:50 PM63 °FSunny.14 mph22%30.36 "Hg10 mi
5:20 PM64 °FSunny.9 mph18%30.36 "Hg10 mi
4:50 PM64 °FPassing clouds.13 mph19%30.36 "HgN/A
4:20 PM63 °FSunny.14 mph24%30.36 "Hg10 mi
3:50 PM63 °FPassing clouds.13 mph25%30.36 "HgN/A
3:20 PM63 °FPassing clouds.12 mph30%30.36 "HgN/A
2:50 PM61 °FPassing clouds.13 mph39%30.36 "HgN/A
2:20 PM68 °FPassing clouds.8 mph30%30.36 "HgN/A
1:50 PM66 °FSunny.3 mph24%30.36 "Hg10 mi
1:20 PM64 °FSunny.2 mph24%30.36 "Hg10 mi
12:50 PM63 °FSunny.3 mph22%30.36 "Hg10 mi
12:20 PM63 °FPassing clouds.6 mph22%30.39 "HgN/A
11:50 AM63 °FPassing clouds.5 mph22%30.39 "HgN/A
11:20 AM61 °FPassing clouds.6 mph27%30.39 "HgN/A
10:50 AM59 °FPassing clouds.6 mph31%30.39 "HgN/A
10:20 AM59 °FPassing clouds.7 mph34%30.39 "HgN/A
9:50 AM57 °FPassing clouds.7 mph33%30.39 "HgN/A
9:20 AM55 °FPassing clouds.5 mph41%30.36 "HgN/A
8:50 AM54 °FPassing clouds.5 mph47%30.36 "HgN/A
8:20 AM52 °FSunny.6 mph58%30.36 "Hg10 mi
7:50 AM48 °FSunny.1 mph71%30.36 "Hg10 mi
7:20 AM46 °FPassing clouds.5 mph71%30.33 "HgN/A
6:50 AM45 °FClear.3 mph76%30.33 "Hg10 mi
6:20 AM45 °FClear.5 mph76%30.33 "Hg10 mi
5:50 AM41 °FClear.2 mph76%30.30 "Hg10 mi
5:20 AM45 °FClear.6 mph76%30.30 "Hg10 mi
4:50 AM43 °FClear.3 mph81%30.30 "Hg10 mi
4:20 AM41 °FClear.2 mph87%30.30 "Hg10 mi
3:50 AM39 °FClear.2 mph93%30.30 "Hg10 mi
3:20 AM39 °FClear.No wind93%30.30 "Hg10 mi
Weather by CustomWeather, © 2015

See weather overviewHow to use our weather pages